Location: Mountain_View
(35.6670°N, 81.4000°W)
Time: 18:25:17
(UTC-05:00)

ISS - Pass Details

Date: 21 November 2019
Orbit: 411 x 421 km, 51.6° (Epoch: 07 December)

Event Time Altitude Azimuth Distance (km) Brightness Sun altitude
Rises 17:46:16 0° 203° (SSW) 2,335 0.7 -6.6°
Reaches altitude 10° 17:48:33 10° 190° (S) 1,479 -0.6 -7.1°
Maximum altitude 17:51:23 26° 131° (SE) 846 -2.5 -7.6°
Enters shadow 17:54:06 11° 73° (ENE) 1,439 -1.7 -8.1°
